Regional Weather Roundup
Issued by NWS

Home | Current Version | Previous Version | Text Only | Print | Product List | Glossary Off
Versions: 1 2 3 4 5 6 7 8 9 10 11 12 13 14 15 16 17 18 19 20 21 22 23 24 25 26 27 28 29 30 31 32 33 34 35 36 37 38 39 40 41 42 43 44 45 46 47 48 49 50

000
ASUS43 KOAX 290410
RWRNE

WEATHER ROUNDUP FOR NEBRASKA
NATIONAL WEATHER SERVICE OMAHA NE
1100 PM CDT THU APR 28 2016

NOTES: SATELLITE DATA IS BEING USED TO AUGMENT CLOUD COVER ABOVE
       12000 FEET.
       "FAIR" INDICATES FEW OR NO CLOUDS BELOW 12,000 FEET WITH NO
       SIGNIFICANT WEATHER AND/OR OBSTRUCTIONS TO VISIBILITY.

  * THESE STATIONS DO NOT REPORT WEATHER SUCH AS RAIN...SNOW OR FOG.

NEZ001>004-019>022-054>056-290500-
NEBRASKA PANHANDLE

CITY           SKY/WX    TMP DP  RH WIND       PRES   REMARKS
SCOTTSBLUFF    CLOUDY    38  34  85 NE5       30.11S WCI  34
ALLIANCE       CLOUDY    34  34 100 W3        30.11R
CHADRON        LGT RAIN  39  36  89 NE3       30.14R
KIMBALL        CLOUDY    35  33  94 NE6       30.08S WCI  30
SIDNEY         CLOUDY    36  33  89 N7        30.10R WCI  30
$$

NEZ057>060-069>072-079>082-290500-
SOUTHWEST NEBRASKA

CITY           SKY/WX    TMP DP  RH WIND       PRES   REMARKS
NORTH PLATTE   CLOUDY    43  39  86 NE9       30.11R
IMPERIAL       CLOUDY    44  39  82 NE5       30.10R
LEXINGTON      CLOUDY    45  42  90 CALM      30.11S
MCCOOK         CLOUDY    45  40  82 NE6       30.11R
OGALLALA       CLOUDY    42  37  81 N5        30.11R
$$

NEZ005>010-023>029-035>040-094-290500-
NORTH CENTRAL NEBRASKA

CITY           SKY/WX    TMP DP  RH WIND       PRES   REMARKS
VALENTINE      CLOUDY    39  36  89 NW6       30.12R WCI  35
AINSWORTH      CLOUDY    39  38  97 N8        30.11R WCI  34
BROKEN BOW     CLOUDY    42  39  89 NE7       30.11R
O`NEILL        CLOUDY    40  39  93 N6        30.12R
ORD            CLOUDY    42  38  85 CALM      30.11R
THEDFORD       CLOUDY    40  38  91 N5        30.13R
$$

NEZ041-046>049-061>064-073>077-083>087-290500-
SOUTH CENTRAL NEBRASKA

CITY           SKY/WX    TMP DP  RH WIND       PRES   REMARKS
GRAND ISLAND   CLOUDY    44  39  82 NE7       30.13R
AURORA         CLOUDY    45  41  87 N6        30.13R
HASTINGS       CLOUDY    45  40  82 NE7       30.11R
HEBRON         CLOUDY    48  43  82 NE6       30.11S
HOLDREGE       CLOUDY    45  42  89 NE3       30.11R
KEARNEY *      CLOUDY    45  39  81 CALM      30.12S
YORK           CLOUDY    45  39  81 N6        30.13R
$$

NEZ011>018-030>034-042>045-290500-
NORTHEAST NEBRASKA

CITY           SKY/WX    TMP DP  RH WIND       PRES   REMARKS
NORFOLK        CLOUDY    43  38  82 N5        30.11R
ALBION         CLOUDY    43  39  85 W3        30.13R
BLAIR          CLOUDY    45  41  86 N5        30.11R
COLUMBUS *     CLOUDY    45  34  65 NW3       30.14R
FREMONT        CLOUDY    45  41  85 CALM      30.12R
TEKAMAH        CLOUDY    45  41  86 N6        30.11R
WAYNE          CLOUDY    41  39  93 N3        30.11R
$$

NEZ050>053-065>068-078-088>093-290500-
SOUTHEAST NEBRASKA

CITY           SKY/WX    TMP DP  RH WIND       PRES   REMARKS
LINCOLN        CLOUDY    48  41  76 NE6       30.13R
OMAHA EPPLEY   CLOUDY    46  41  82 NW6       30.11R
BEATRICE       CLOUDY    48  44  85 NE3       30.10S
FALLS CITY     CLOUDY    51  44  77 N7        30.09R
NEBRASKA CITY  CLOUDY    48  42  80 N7        30.10S
PLATTSMOUTH    CLOUDY    46  41  83 N3        30.11R
$$

NEZ044-045-051>053-067-290500-
OMAHA AREA

CITY           SKY/WX    TMP DP  RH WIND       PRES   REMARKS
OMAHA EPPLEY   CLOUDY    46  41  82 NW6       30.11R
BLAIR          CLOUDY    45  41  86 N5        30.11R
FREMONT        CLOUDY    45  41  85 CALM      30.12R
MILLARD        CLOUDY    47  40  78 NW3       30.12R
OFFUTT AFB     CLOUDY    46  41  81 N3        30.11R
PLATTSMOUTH    CLOUDY    46  41  83 N3        30.11R
WAHOO          CLOUDY    46  41  84 N3        30.12R
$$




USA.gov is the U.S. government's official web portal to all federal, state and local government web resources and services.